< < Back
Terminal Aerodrome Forecast


Current Version              Previous Versions:   1  2  3  4  5  6  7  8  9  

Terminal Aerodrome Forecast

687
FTUS44 KMRX 241122
TAFCHA
TAF
KCHA 241122Z 2412/2512 21004KT P6SM SKC
     FM241700 17008KT P6SM FEW060
     FM250100 19004KT P6SM SCT050 BKN150
     FM250800 20006KT P6SM -RA SCT024 OVC035=

Latest METAR

441
SAUS80 KWBC 241200 RRB
MTRCHA
METAR KCHA 241153Z 00000KT 10SM SCT250 08/05 A3005 RMK AO2 SLP172
T00830050 10100 20067 52018


USA.gov is the U.S. government's official web portal to all federal, state and local government web resources and services.